Flight Information

DEPARTURE
PRESCOTT, AZ
Elevation:
5045
Runways:
12/30 - 4408x75 - ASPH-G
3R/21L - 7619x150 - ASPH-G
3L/21R - 4846x60 - ASPH-G
ATIS:
127.2
Ground:
121.7
Tower:
PRESCOTT TOWER 125.3
DESTINATION
,
Elevation:
TPA:
1000 (est.)


6496.8 NM77° True-13° Var63° HDG

Flight Plan:
(click to file on line)

1. Type
2. Aircraft Identification
3. Aircraft Type / Special Equipment
4. True Airspeed
kts
5. Departure Airport
(ICAO code)
6. Arriving Airport
(ICAO code)
7. Cruising Altitude
ft
8. Alternate Airport
(ICAO code)
9. Route of Flight
10. Remarks


00:00:00 Departure ATIS: Destination ATIS:

Clearance Limit:
Route:
Altitude: Expect in minutes
Frequency:
Transponder: (7500 Hijack / 7600 Lost Comms / 7700 Emergency)


KPRC 051453Z 00000KT 10SM CLR 25/04 A3018 RMK AO2 SLP123 T02500039 51007
Time: 2020-07-05T14:53:00Z
1593964218
Winds: calm
Visibility: 10.0 sm
Clouds (AGL): CLR
Temperature: 25.0 C
Dew Point: 3.9 C
Pressure: 30.180119 in Hgbr


Notes:

Data extracted from FAA Digital Chart Supplement. Effective: 0901Z Thursday, May 21, 2020 to 0901Z Thursday, Jul 16, 2020
Current ATIS data is provided courtisy of PilotEdge.